User: anonymous   Login
Location: Mount Tamalpais State Park
(37.9108°N, 122.6128°W)
Time: 16:42:35
(UTC-08:00)
Language:

Cosmos 1814 Rocket - Orbit

View from above orbital plane
View from above orbital plane
View from above satellite
View from above satellite

Ground track
Ground track

The orbit data is extracted from the following two-line orbital elements,

1 17304U 87006B   17016.59850400 -.00000007  00000-0  65999-5 0  9993
2 17304  74.0591   9.2889 0031029 247.0864 112.7014 14.37591164571511
Epoch (UTC): 16 January 2017 14:21:50
Eccentricity: 0.0031029
inclination: 74.0591°
perigee height: 744 km
apogee height: 788 km
right ascension of ascending node: 9.2889°
argument of perigee: 247.0864°
revolutions per day: 14.37591164
mean anomaly at epoch: 112.7014°
orbit number at epoch: 57151

The dashed part of the orbit path shows where the satellite is in the earth's shadow,  

DLR